User: anonymous   Login
Location: Unspecified
(0.0000°N, 0.0000°E)
Time: 04:42:46
(UTC+01:00)
Language:

Cosmos 1703 Rocket - Orbit

View from above orbital plane
View from above orbital plane
View from above satellite
View from above satellite

Ground track
Ground track

The orbit data is extracted from the following two-line orbital elements,

1 16263U 85108B   18050.59315730 +.00000065 +00000-0 +51393-5 0  9994
2 16263 082.5012 242.2102 0018651 252.1993 166.2146 14.83021761719975
Epoch (UTC): 19 February 2018 14:14:08
Eccentricity: 0.0018651
inclination: 82.5012°
perigee height: 607 km
apogee height: 633 km
right ascension of ascending node: 242.2102°
argument of perigee: 252.1993°
revolutions per day: 14.83021761
mean anomaly at epoch: 166.2146°
orbit number at epoch: 71997

The dashed part of the orbit path shows where the satellite is in the earth's shadow,  

DLR